This is the latest recevied weather packets stored in our database for station/object W8AN. If no packets are shown the sender has not sent any weather packets the latest 10 day(s).
| Time | Temp. | Humidity | Pressure | Rain* | Wind** | Luminosity | Snow |
|---|---|---|---|---|---|---|---|
| 1777386451 | 18.33° C | 72% | 4265.1 hPa | 0 mm | - | 422 W/m² | - |
| 1777386148 | 18.33° C | 75% | 4265.3 hPa | 0 mm | - | 796 W/m² | - |
| 1777385845 | 17.78° C | 77% | 4265.2 hPa | 0 mm | - | 238 W/m² | - |
| 1777385542 | 17.78° C | 78% | 4265.1 hPa | 0 mm | - | 234 W/m² | - |
| 1777385239 | 17.78° C | 79% | 4265.3 hPa | 0 mm | - | 326 W/m² | - |
| 1777384935 | 17.78° C | 80% | 4265.2 hPa | 0 mm | - | 207 W/m² | - |
| 1777384633 | 17.78° C | 80% | 4265 hPa | 0 mm | - | 259 W/m² | - |
| 1777384332 | 17.78° C | 81% | 4264.9 hPa | 0 mm | - | 294 W/m² | - |
| 1777384028 | 17.78° C | 81% | 4264.9 hPa | 0 mm | - | 310 W/m² | - |
| 1777383724 | 17.22° C | 81% | 4264.8 hPa | 0 mm | - | 269 W/m² | - |
| 1777383421 | 17.22° C | 82% | 4265.1 hPa | 0 mm | - | 250 W/m² | - |
| 1777383116 | 17.22° C | 82% | 4265 hPa | 0 mm | - | 218 W/m² | - |
| 1777382814 | 16.67° C | 83% | 4264.9 hPa | 0 mm | - | 136 W/m² | - |
| 1777382509 | 16.67° C | 83% | 4265 hPa | 0 mm | - | 157 W/m² | - |
| 1777382205 | 16.67° C | 83% | 4264.8 hPa | 0 mm | - | 138 W/m² | - |
| 1777381902 | 16.11° C | 83% | 4264.9 hPa | 0 mm | - | 78 W/m² | - |
| 1777381601 | 16.11° C | 84% | 4265 hPa | 0 mm | - | 81 W/m² | - |
| 1777381298 | 16.11° C | 84% | 4264.7 hPa | 0 mm | - | 69 W/m² | - |
| 1777380995 | 16.11° C | 84% | 4264.6 hPa | 0 mm | - | 42 W/m² | - |
| 1777380691 | 15.56° C | 84% | 4264.7 hPa | 0 mm | - | 36 W/m² | - |
| 1777380387 | 15.56° C | 84% | 4264.6 hPa | 0 mm | - | 29 W/m² | - |
| 1777380084 | 15.56° C | 84% | 4264.4 hPa | 0 mm | - | 22 W/m² | - |
| 1777379780 | 15.56° C | 84% | 4264.5 hPa | 0 mm | - | 19 W/m² | - |
| 1777379475 | 16.11° C | 84% | 4264.3 hPa | 0 mm | - | 29 W/m² | - |
| 1777379171 | 16.11° C | 83% | 4264.4 hPa | 0 mm | - | 41 W/m² | - |
* Rain latest hour (hover to see other rain measurements)
** Current wind speed in m/s (hover to see current wind gust speed)